Theta_e
350 349 348 348 348 347 346 347 347 346 344 344 344 344 345 346 345 345 345 344 346 350 353 354 355 355 355 355 355 355 355 355 355 355 355 355 356 355 354 352 350 349
350 349 348 347 347 347 346 347 346 346 344 344 343 343 344 344 344 345 345 344 345 347 350 353 354 355 355 354 354 354 354 355 355 355 355 354 355 355 354 353 353 350
349 349 348 347 346 346 346 345 346 346 345 343 343 343 342 342 343 344 344 344 345 344 345 349 351 353 354 354 354 353 354 354 354 354 355 354 354 354 355 355 354 352
348 349 348 347 346 346 345 345 345 345 344 344 343 342 341 340 340 341 342 343 344 345 344 345 348 350 352 353 353 353 352 353 354 355 355 355 355 354 354 355 355 355
348 347 348 347 346 346 345 344 344 343 343 343 343 343 342 340 339 339 340 340 341 344 344 344 345 347 349 352 353 353 352 353 353 354 354 355 354 355 354 355 355 355
347 347 347 347 346 346 345 344 343 342 342 342 342 342 341 339 339 339 339 339 340 342 344 344 344 345 347 349 352 353 352 352 354 355 355 354 354 354 354 355 355 355
347 347 347 346 345 345 345 345 343 342 341 342 341 340 340 339 339 339 340 340 340 341 343 344 345 344 345 346 349 351 352 352 354 355 356 355 354 354 354 354 355 355
347 347 346 346 345 345 345 344 344 342 341 342 342 341 342 342 340 340 339 340 341 342 343 344 344 344 344 345 347 349 350 351 353 355 357 356 355 355 354 355 355 355
347 347 347 346 346 345 344 344 343 342 340 341 342 342 343 343 342 340 340 340 340 342 343 344 344 345 345 345 345 346 348 350 351 353 355 356 356 355 354 355 356 356
347 347 346 347 346 345 344 343 343 342 341 341 341 343 343 343 342 341 341 341 341 342 343 344 345 345 345 345 344 345 346 348 350 352 353 355 355 355 354 354 355 356
347 347 347 347 346 345 344 343 343 342 341 340 340 341 343 343 343 342 342 343 343 343 344 344 345 345 345 345 343 345 346 347 349 351 352 353 353 354 353 353 353 353
347 347 346 346 346 346 346 345 344 342 342 341 340 341 342 342 342 343 343 343 343 344 344 344 345 345 345 344 343 344 346 346 348 349 350 352 352 352 353 352 351 350
347 347 346 347 346 346 346 345 345 344 343 342 341 340 340 341 342 342 343 344 343 343 344 343 343 343 344 343 344 345 345 347 348 349 349 351 351 352 352 352 351 350
347 347 347 347 346 346 346 346 346 345 344 344 342 342 341 341 341 342 342 343 343 343 344 343 342 342 342 343 344 345 345 346 347 349 349 350 350 351 351 351 352 350
347 348 347 347 347 347 347 346 347 346 345 345 344 343 344 342 342 342 342 343 343 343 343 342 342 342 341 342 343 344 345 345 346 347 349 350 350 351 352 352 351 351
348 348 348 349 348 348 349 348 348 347 346 346 346 345 345 344 344 344 343 344 344 344 344 343 344 344 343 343 343 344 344 344 345 347 348 350 351 352 353 352 352 351
349 349 349 350 349 350 349 349 349 349 348 348 348 347 347 346 345 345 345 345 345 346 346 346 346 345 344 344 344 344 344 345 346 347 348 350 351 351 353 352 352 351
349 349 350 350 350 350 350 350 350 350 350 350 349 348 348 347 347 346 346 346 346 347 347 346 347 346 345 345 345 345 346 346 347 348 349 350 351 351 352 352 352 352
349 349 350 351 351 351 351 351 352 351 351 351 350 350 349 348 348 348 347 347 346 347 347 347 347 346 346 346 345 345 346 347 348 349 350 351 351 351 351 351 352 352
350 351 351 351 352 352 352 352 352 352 352 351 351 351 350 349 349 348 348 348 347 347 347 347 348 347 347 347 347 347 348 348 350 350 350 351 352 352 352 352 352 352
352 351 352 352 352 352 353 353 353 352 352 352 351 352 351 350 350 349 349 349 348 348 348 348 348 347 348 347 348 348 349 350 351 352 352 352 352 353 352 353 352 352
354 353 353 353 353 353 354 353 354 353 353 353 352 352 352 351 351 351 351 350 350 349 349 349 349 349 349 349 349 349 350 350 352 352 353 353 353 353 353 353 353 353
355 355 355 355 355 355 355 355 354 355 354 354 353 353 353 353 352 352 352 351 351 351 350 351 350 350 350 350 350 351 350 352 352 352 353 353 353 353 353 353 353 353
358 357 356 357 357 356 357 356 355 356 356 355 354 353 353 353 353 353 353 352 352 352 352 352 351 352 351 351 351 352 351 352 352 352 352 353 353 353 353 353 353 353
359 359 358 358 358 358 358 357 355 355 355 355 354 354 353 353 354 354 353 354 353 353 353 353 353 353 353 352 353 352 352 352 352 352 352 352 353 353 353 353 353 353
356 358 359 359 359 358 357 357 356 355 354 354 354 354 353 353 354 354 355 354 354 354 354 354 354 354 353 353 353 353 353 353 352 352 352 352 353 353 353 353 353 354
Wind_Speed
35 35 35 35 33 32 31 30 29 26 24 23 23 22 21 20 18 17 17 17 17 17 17 15 13 12 10 10 10 10 9 8 8 8 8 9 9 8 7 7 8 7
37 36 35 34 33 32 32 31 30 28 26 25 23 21 20 20 19 18 17 17 17 18 17 16 15 13 12 11 11 12 11 10 9 9 9 9 9 8 8 7 8 8
38 37 36 35 35 34 33 32 31 31 28 27 25 23 21 21 20 19 18 18 18 18 17 17 15 14 13 12 12 13 13 12 10 9 9 9 9 9 8 8 8 8
38 38 37 37 37 36 34 33 32 32 31 29 28 26 24 22 21 21 20 19 18 18 18 17 16 15 14 13 13 13 14 13 11 10 10 10 10 10 9 9 8 8
39 39 39 38 37 36 35 33 33 33 33 32 30 28 27 25 23 22 22 21 20 19 19 18 17 16 15 15 14 14 14 15 13 12 12 12 11 11 10 9 9 8
38 39 39 38 37 36 35 35 35 34 34 34 32 30 29 27 26 24 23 22 21 21 20 19 18 18 17 16 16 15 15 16 15 14 15 14 13 13 12 11 10 10
38 38 38 38 37 36 37 36 35 34 34 34 33 31 30 28 28 27 25 24 23 22 22 21 20 19 18 17 17 17 17 17 17 16 17 16 15 15 14 14 13 13
38 38 38 38 37 36 37 37 37 36 35 33 32 32 31 30 30 29 28 27 26 25 24 23 22 21 19 18 18 19 18 18 19 19 19 18 18 17 17 16 16 16
37 37 37 37 37 37 37 37 38 38 36 35 34 33 32 31 31 30 30 29 28 27 26 25 24 23 22 21 20 20 20 20 21 21 21 21 21 20 19 18 18 19
36 36 35 36 36 37 38 38 38 38 38 37 36 34 32 31 31 31 31 30 30 29 28 27 27 26 25 24 23 22 21 21 21 22 23 23 23 23 22 21 21 21
35 35 34 35 36 37 37 38 37 36 37 37 37 35 34 32 31 30 30 31 31 31 30 29 29 28 27 26 26 25 24 24 23 23 24 24 25 25 24 24 24 24
35 35 35 36 36 36 37 37 36 35 35 36 36 36 35 34 32 31 31 31 32 32 31 30 29 29 28 28 28 28 27 26 26 26 26 26 26 26 25 25 25 25
36 36 37 37 37 37 36 35 35 35 35 35 35 35 35 34 33 32 33 33 33 33 32 31 30 30 29 29 29 29 29 29 28 28 28 28 28 28 27 26 25 24
38 37 37 37 36 36 35 34 34 34 35 35 34 34 34 35 34 34 33 33 34 34 33 33 32 31 31 31 31 30 30 30 30 30 30 30 30 30 29 27 26 24
37 36 36 35 35 34 34 34 34 34 34 34 34 34 34 34 34 33 32 32 33 34 34 33 33 33 33 32 32 32 31 32 31 31 31 31 31 31 30 29 28 26
36 35 35 34 34 34 34 34 34 34 33 33 34 34 34 34 33 32 32 32 32 33 33 33 34 34 34 33 33 33 33 32 32 32 32 32 31 31 31 30 29 28
35 35 34 34 35 35 34 34 34 34 33 34 34 34 34 34 33 32 32 32 32 33 33 34 35 35 35 35 34 34 33 33 33 33 32 32 32 31 31 31 30 29
34 34 34 34 35 35 35 35 34 34 34 34 34 35 34 34 33 33 33 33 32 33 33 34 36 36 36 35 35 34 34 34 34 33 33 32 32 32 32 31 30 30
34 33 33 34 34 34 34 34 33 33 34 35 35 35 34 34 34 35 34 34 33 33 34 35 36 37 37 36 35 35 34 34 34 34 33 33 33 33 32 32 31 30
35 34 34 34 35 34 33 33 33 34 35 35 35 34 34 34 35 35 35 35 35 35 35 36 37 38 37 37 36 35 34 34 34 34 34 34 33 33 33 33 32 31
35 36 36 36 36 35 34 33 33 33 34 34 34 34 35 35 36 36 36 36 36 36 36 37 38 39 38 37 37 36 35 34 34 34 34 34 34 34 34 34 33 33
36 36 36 36 35 34 34 34 33 32 31 31 31 32 34 35 35 35 36 36 36 36 36 37 39 40 39 38 38 36 35 34 34 35 35 35 35 34 34 35 34 34
35 35 35 35 34 34 35 37 38 37 34 30 29 29 31 33 35 36 36 36 36 36 37 38 40 40 40 39 39 37 35 34 35 35 35 35 35 35 35 35 35 35
30 33 34 34 35 35 36 37 39 40 39 36 33 32 32 33 34 35 36 36 36 37 38 39 40 40 39 39 39 37 36 35 36 36 36 36 36 36 36 36 36 36
25 29 32 33 35 36 36 35 36 36 37 37 37 36 37 37 36 35 35 36 37 38 38 39 40 39 38 39 39 38 37 36 36 36 36 36 36 36 36 36 37 37
18 25 30 32 34 35 36 36 34 33 33 35 36 37 38 38 38 37 37 36 37 37 38 38 39 38 38 39 39 38 38 37 36 36 36 36 35 35 35 35 36 37
Wind_Direction
219 220 222 223 225 227 228 228 230 234 237 237 238 238 237 238 239 239 239 238 237 235 234 236 237 239 239 238 238 239 244 254 265 273 269 257 251 249 249 254 256 259
218 221 222 224 226 227 228 230 231 234 237 238 238 237 236 237 239 241 242 243 241 239 238 239 239 241 243 244 242 241 246 255 267 277 274 262 257 256 257 261 257 255
217 220 221 224 226 227 229 230 231 234 238 239 239 237 235 235 238 242 245 246 246 245 244 241 240 240 243 249 249 246 247 252 263 275 275 268 265 266 266 265 261 257
216 218 221 224 226 228 230 231 231 233 236 238 239 238 236 236 238 242 245 247 248 249 248 245 243 242 244 249 254 253 250 249 257 269 273 272 268 268 270 268 263 258
216 218 220 222 225 228 230 231 233 233 234 237 239 240 239 239 240 243 246 248 249 249 250 249 248 248 248 250 254 258 255 251 253 262 268 272 269 263 265 267 265 260
216 218 219 221 223 225 228 231 233 234 235 236 238 239 241 242 243 245 247 249 250 251 250 250 252 252 252 252 254 258 258 253 253 260 265 269 268 261 258 262 265 264
216 218 219 220 221 223 227 230 233 234 235 236 238 239 241 243 244 245 247 248 251 252 251 250 251 252 253 254 254 256 257 255 254 258 264 266 266 261 256 257 262 266
216 217 219 220 220 222 225 228 231 234 235 236 237 239 241 243 245 246 247 247 249 252 253 252 252 252 253 253 254 254 254 254 253 256 262 264 263 261 258 258 260 265
216 217 218 219 220 221 223 226 228 231 234 235 237 239 241 243 245 246 247 247 248 251 252 253 252 252 252 252 253 253 253 253 252 254 257 260 261 262 262 260 260 263
216 217 218 219 220 222 223 225 227 229 231 233 236 239 241 243 244 246 246 245 246 248 250 252 252 251 251 251 252 253 253 253 253 253 254 257 260 262 264 264 262 262
216 217 218 219 221 222 224 225 226 226 229 231 234 236 238 241 242 243 244 243 244 246 248 249 250 249 249 251 252 253 253 253 254 254 255 256 258 261 263 265 265 264
215 216 218 220 221 223 224 225 225 225 227 229 231 233 234 237 238 240 241 242 243 244 245 247 248 248 249 251 253 253 253 253 253 254 255 256 257 259 261 263 265 266
215 217 218 220 222 223 224 225 225 225 226 228 229 230 232 233 234 236 239 240 242 243 244 246 247 247 249 251 252 252 252 252 252 252 254 255 256 257 258 260 262 264
216 218 219 220 222 224 225 225 225 226 227 227 228 229 230 231 232 234 236 238 241 242 244 245 246 246 248 249 249 250 251 252 252 251 252 253 255 256 256 257 260 263
217 218 219 221 222 223 224 225 226 227 228 228 228 229 230 231 232 232 233 235 238 241 243 244 244 245 246 247 247 247 248 250 251 251 250 251 252 254 255 256 258 260
216 217 218 219 220 222 223 225 226 227 228 228 229 230 231 231 231 231 231 233 235 238 240 240 241 243 245 246 247 247 247 248 248 249 249 249 250 250 252 254 256 259
215 216 217 218 220 221 222 224 225 226 227 228 229 230 231 231 231 231 231 232 233 235 237 237 239 242 244 246 246 247 247 246 246 248 248 248 249 249 251 253 255 258
214 215 216 218 219 220 221 223 224 224 225 227 228 229 231 231 231 231 231 232 232 233 235 236 238 241 243 245 246 246 245 244 245 246 246 246 248 249 251 253 255 257
213 214 215 217 219 220 222 222 222 223 225 226 228 229 229 230 231 231 232 232 231 232 234 236 238 241 243 244 245 245 245 243 243 243 244 245 247 249 251 253 254 256
211 212 214 217 219 220 221 221 221 224 225 227 229 229 229 229 230 231 231 232 231 232 234 236 238 241 242 242 243 244 244 242 241 241 243 244 246 248 250 252 254 256
211 212 213 215 217 217 218 219 221 224 226 227 228 229 229 230 230 230 230 231 232 232 233 236 238 240 242 242 242 243 243 241 240 239 240 243 245 247 248 251 253 255
211 211 213 215 215 214 214 215 218 223 227 230 232 233 233 232 231 231 231 230 231 232 232 235 238 240 240 241 242 242 241 239 238 238 238 240 243 245 247 250 252 252
211 211 212 214 214 214 214 213 214 216 219 225 233 239 240 236 233 233 233 232 231 231 231 234 238 240 240 240 241 240 238 236 235 235 236 238 241 244 246 249 251 251
213 212 212 212 213 215 217 219 217 215 212 213 220 232 241 243 241 237 234 234 232 232 232 234 237 239 239 239 240 239 236 234 234 234 234 236 240 243 245 247 250 252
217 214 214 213 215 216 218 222 224 222 217 213 214 221 230 238 242 241 237 235 234 234 234 234 237 239 240 239 240 238 236 234 233 231 231 233 237 240 243 245 248 250
231 224 219 217 218 219 220 222 225 227 224 218 214 217 223 229 234 237 237 236 236 236 235 235 237 238 239 240 240 238 236 233 230 228 229 231 234 237 239 242 245 248